Wind_Speed
10 10 10 8 7 7 7 6 6 6 6 7 6 7 9 11 11 10 11 13 13 12 13 12 10 11 14 14 15 16 17 15 14 5 30 25 13 28 25 24 19 19 16 14 10
9 9 8 6 7 7 7 7 7 7 8 9 9 9 10 10 10 12 12 12 11 12 11 12 11 9 11 13 16 17 16 15 13 12 10 26 30 25 22 25 24 20 15 14 11
8 8 7 7 8 8 7 9 10 11 11 11 12 13 13 12 10 11 12 12 11 10 11 11 11 10 10 11 14 15 16 21 13 9 12 25 21 21 17 23 23 18 10 13 12
6 6 6 8 8 7 7 9 10 9 8 8 8 9 10 11 11 11 11 13 11 10 10 11 11 11 10 8 12 16 16 23 25 9 26 26 15 24 28 25 34 20 7 13 13
5 5 6 6 6 5 7 8 9 9 9 10 10 12 12 11 11 11 12 13 13 11 10 11 11 11 10 9 12 14 16 23 29 22 22 31 32 23 23 25 33 18 10 19 15
6 6 6 7 7 7 10 11 11 12 13 14 15 16 16 16 15 14 13 13 13 12 11 11 12 12 11 10 11 12 16 23 29 21 22 23 25 26 22 22 27 24 16 22 18
8 8 9 8 9 10 11 12 13 14 16 16 17 18 18 19 18 18 16 15 14 13 12 11 12 12 13 11 12 14 17 21 31 23 22 25 26 25 21 20 25 35 30 25 16
9 9 10 10 9 10 11 12 14 15 17 17 18 19 18 19 18 18 17 17 16 15 14 12 12 12 12 13 11 13 15 17 21 23 21 26 25 22 22 22 29 29 27 26 21
10 11 11 11 11 12 12 14 15 16 18 18 19 21 18 19 19 19 18 18 17 16 16 14 12 12 12 12 11 10 11 12 9 15 19 26 26 22 18 27 28 48 13 26 20
11 11 12 13 13 13 13 14 15 17 17 18 19 20 19 19 19 18 18 17 17 15 14 14 13 12 11 11 3 7 17 12 14 13 27 29 23 23 18 23 35 36 33 26 29
13 12 14 14 12 13 13 14 15 16 17 17 18 18 19 19 19 17 16 15 15 14 12 12 11 11 8 10 17 22 18 13 7 18 16 22 20 19 18 29 37 36 28 27 28
14 14 13 13 13 14 15 16 17 18 16 16 16 17 18 19 18 17 15 14 13 12 11 8 6 5 10 24 15 19 24 18 19 14 28 31 23 16 18 27 34 25 24 30 28
15 13 12 13 14 16 17 16 16 16 18 14 15 16 17 17 18 15 15 15 13 11 9 7 8 20 17 16 15 15 18 17 15 12 25 18 17 15 18 20 32 24 23 25 35
14 13 13 14 14 14 15 14 13 13 15 14 14 15 15 16 16 16 15 14 12 9 7 10 11 21 11 13 13 12 9 15 20 18 19 15 16 14 18 19 29 27 25 23 31
15 15 14 14 12 10 9 10 10 8 3 15 13 14 14 15 16 14 14 14 12 9 10 6 13 15 13 10 10 8 16 23 17 15 20 19 22 13 15 24 21 25 31 28 27
16 15 14 12 10 7 7 7 6 6 8 13 15 16 15 13 13 15 13 13 12 11 10 15 10 14 12 11 16 13 18 18 15 14 18 15 18 19 17 17 20 25 24 24 32
16 14 13 12 10 8 7 6 6 6 10 20 13 10 5 13 14 15 14 11 8 6 7 11 13 13 14 16 10 11 12 11 10 14 13 15 19 17 11 17 22 21 26 18 28
15 14 14 13 11 11 10 10 10 10 13 16 13 13 11 13 11 9 9 6 12 9 13 12 18 15 12 10 8 10 12 11 12 16 23 18 13 14 19 20 26 25 26 30 36
17 16 15 15 14 13 14 14 13 15 18 14 16 15 14 16 14 13 4 18 25 6 11 12 17 15 15 16 17 11 10 19 21 19 22 15 21 10 20 11 16 16 19 25 28
19 19 18 17 17 17 16 17 20 20 18 18 16 14 8 15 13 12 10 21 20 15 12 15 15 11 10 16 14 11 17 16 10 22 18 16 16 18 15 23 22 20 15 23 31
20 20 18 20 21 21 20 22 25 17 21 20 21 23 17 22 21 11 14 27 17 16 17 17 18 21 22 13 8 16 24 18 22 27 20 17 11 37 18 5 19 21 16 29 36
21 22 15 20 21 22 23 27 18 21 22 23 23 23 24 25 23 22 18 32 17 17 18 23 17 17 19 18 21 22 28 23 25 19 25 27 26 26 25 27 20 32 34 36 43
24 23 20 20 21 22 27 25 22 24 23 25 26 27 26 25 25 25 27 34 22 24 21 22 21 21 18 11 16 22 26 28 24 27 27 28 21 20 29 43 31 34 33 41 53
27 26 26 26 25 24 28 23 25 25 27 26 29 31 28 26 29 29 28 37 25 29 25 29 25 24 24 21 24 21 29 21 15 22 22 22 23 23 25 31 27 32 35 42 36
31 32 29 32 28 27 28 27 27 28 29 29 31 32 32 32 31 31 32 37 39 31 32 34 31 30 30 28 27 30 31 32 29 28 29 26 25 24 27 29 42 36 44 41 41
34 34 30 35 33 31 31 31 30 30 35 28 33 34 34 34 33 35 39 40 38 41 36 36 37 36 37 34 34 34 34 35 36 32 32 32 29 27 28 27 35 35 34 40 37
36 37 36 36 35 36 34 36 35 32 36 31 36 32 35 37 34 36 37 40 41 41 38 42 38 38 39 36 39 42 35 34 36 34 35 33 31 26 27 37 37 32 36 36 33
Wind_Direction
241 242 243 236 234 239 250 252 259 272 285 291 307 324 319 313 318 324 308 288 279 277 271 262 263 256 244 235 232 219 215 209 130 3 279 292 275 286 276 273 282 295 323 315 295
242 234 235 245 247 248 253 259 270 280 281 291 298 307 305 313 328 333 327 321 295 279 274 261 253 256 245 233 229 225 218 190 136 276 274 281 286 276 269 271 273 285 313 300 292
236 239 246 251 257 259 266 274 276 277 284 288 294 294 293 300 315 325 334 327 319 291 272 265 252 244 248 234 232 230 216 182 156 266 223 278 259 275 281 278 258 255 317 298 289
236 243 249 254 257 267 281 280 281 283 294 300 305 304 307 308 315 315 320 323 315 307 280 268 257 244 247 241 227 229 215 205 177 199 243 225 264 265 266 264 270 285 352 321 295
237 240 247 254 266 282 282 282 286 296 298 297 299 300 307 311 316 317 311 307 312 306 296 273 265 256 246 239 233 227 222 212 201 194 256 228 235 258 271 275 279 157 6 320 300
238 245 255 260 270 279 280 283 287 291 290 291 293 293 297 297 302 304 302 301 300 306 300 288 266 255 249 244 239 239 229 217 211 239 249 244 242 249 264 276 280 277 291 298 299
249 252 259 269 273 273 278 283 289 290 292 293 292 292 291 291 292 293 294 294 293 292 296 290 276 259 245 242 238 239 235 230 222 230 232 248 245 257 267 266 280 287 284 292 283
258 268 267 264 265 269 274 285 289 291 293 295 295 293 292 292 289 285 284 285 286 284 281 281 275 263 250 240 241 245 243 242 227 240 242 250 251 254 262 263 271 269 269 291 286
259 260 262 261 268 276 283 287 289 291 293 293 291 290 290 289 284 280 276 274 275 276 275 272 271 265 254 241 237 254 266 253 251 251 267 254 255 248 245 275 278 274 295 289 282
253 254 260 271 278 283 287 290 292 291 289 289 289 292 293 288 285 280 276 270 268 267 272 275 272 266 256 243 192 327 306 306 243 276 237 267 258 247 240 256 261 258 285 293 278
250 256 265 273 280 285 289 292 291 289 289 293 293 295 294 291 288 285 280 273 265 266 266 268 269 266 263 278 173 244 199 208 250 238 230 251 261 232 231 253 263 276 278 273 277
248 254 261 274 288 296 298 300 299 295 292 293 293 292 293 292 288 284 277 268 259 256 258 258 272 240 237 226 256 251 222 222 199 222 244 242 262 255 239 243 264 270 266 261 273
247 255 270 284 294 300 303 302 302 301 294 287 288 288 288 288 287 283 274 267 255 250 243 220 158 263 255 261 253 250 239 237 247 242 272 281 261 227 261 247 265 276 264 268 274
250 260 273 285 297 307 309 308 301 300 295 291 284 284 289 288 287 285 277 266 252 240 239 245 220 250 269 264 261 254 287 278 236 231 246 285 276 262 257 250 264 291 271 270 273
250 262 269 281 295 308 311 306 304 305 319 304 305 304 304 302 301 291 286 277 261 227 270 223 261 268 264 280 258 227 236 223 247 259 255 249 252 254 250 264 292 273 293 296 291
253 262 271 276 280 279 289 298 300 284 259 279 286 299 304 300 300 297 295 287 274 260 238 206 248 274 271 233 252 243 252 266 271 274 266 296 262 244 241 270 253 243 259 276 292
253 262 270 270 275 279 266 268 271 249 278 278 276 281 249 268 307 302 298 289 259 280 295 257 257 277 291 262 287 283 273 283 284 271 317 264 260 267 256 238 271 260 279 281 267
254 263 265 267 268 274 269 259 247 212 252 268 261 264 266 274 281 287 282 327 299 263 232 289 294 232 214 260 208 297 238 273 263 258 274 258 261 239 236 243 245 274 266 258 265
255 261 264 266 261 269 265 263 238 230 271 267 260 257 265 263 255 280 244 235 252 282 248 230 223 257 279 264 274 237 258 245 254 259 274 280 284 330 303 250 258 247 261 271 274
256 263 263 259 258 258 264 265 266 263 267 264 252 250 213 272 265 266 237 260 253 254 251 230 239 211 274 279 301 272 234 267 253 251 242 239 259 266 253 235 243 216 244 248 258
257 263 265 254 254 253 256 255 260 272 259 260 249 247 244 229 256 213 222 249 253 261 262 251 248 237 243 267 272 259 246 226 243 245 243 239 242 240 234 193 238 209 240 245 255
255 261 255 255 254 253 250 252 265 261 262 261 256 256 256 252 257 239 239 250 263 259 249 256 265 248 248 246 257 271 274 275 261 263 255 249 220 302 303 265 235 247 248 251 251
252 257 246 251 251 249 251 257 258 263 260 264 261 250 251 259 260 251 249 263 261 258 253 262 258 263 263 272 262 260 261 251 254 260 268 272 272 257 281 260 277 274 255 268 278
250 253 251 252 250 254 259 263 264 263 263 263 261 258 255 249 257 257 257 269 261 260 259 264 265 268 263 243 248 255 262 254 253 274 277 273 267 255 240 257 285 262 258 261 270
252 254 260 250 249 255 261 263 267 271 261 264 264 260 252 253 251 259 259 264 274 260 267 267 268 271 268 260 246 257 256 264 265 274 276 280 277 275 273 265 259 266 274 282 292
251 256 254 254 255 253 259 262 263 266 271 264 261 259 259 257 253 254 259 267 270 277 269 263 270 270 271 267 262 258 259 262 266 270 273 274 279 278 280 284 272 276 278 279 279
251 253 255 256 255 257 261 259 262 268 271 263 261 257 260 255 261 263 262 264 265 267 270 274 271 269 268 265 264 263 267 263 263 264 266 268 272 270 260 270 286 285 281 276 276
Height
5858 5859 5861 5861 5862 5863 5865 5866 5866 5866 5866 5867 5868 5867 5868 5866 5866 5866 5865 5864 5865 5866 5867 5868 5869 5870 5872 5874 5876 5878 5881 5885 5891 5899 5890 5888 5890 5885 5889 5886 5883 5880 5882 5880 5880
5857 5858 5860 5859 5861 5862 5864 5864 5865 5865 5865 5866 5866 5866 5867 5866 5866 5865 5865 5863 5863 5864 5865 5866 5867 5868 5869 5871 5874 5875 5879 5884 5889 5896 5897 5889 5890 5884 5885 5884 5880 5880 5879 5879 5878
5856 5857 5858 5859 5860 5860 5861 5863 5863 5863 5863 5863 5864 5865 5865 5864 5865 5865 5864 5863 5862 5862 5863 5864 5864 5866 5867 5868 5871 5873 5877 5881 5886 5894 5893 5883 5887 5881 5880 5881 5878 5874 5879 5876 5877
5855 5855 5856 5858 5859 5858 5859 5861 5862 5862 5861 5862 5863 5863 5863 5862 5864 5863 5862 5862 5861 5861 5861 5862 5862 5863 5864 5866 5868 5870 5874 5877 5879 5884 5885 5886 5884 5882 5881 5880 5869 5857 5871 5875 5875
5853 5854 5855 5856 5857 5856 5858 5860 5860 5860 5859 5861 5861 5861 5861 5862 5860 5860 5861 5861 5861 5860 5860 5860 5860 5861 5862 5863 5866 5868 5870 5873 5876 5877 5878 5879 5880 5880 5877 5873 5859 5838 5864 5871 5872
5851 5853 5854 5855 5854 5855 5857 5857 5857 5857 5858 5858 5859 5859 5859 5860 5859 5858 5859 5859 5859 5859 5858 5858 5858 5858 5859 5861 5863 5865 5867 5869 5870 5875 5875 5874 5876 5875 5878 5870 5867 5868 5858 5868 5868
5850 5850 5852 5852 5852 5854 5855 5855 5855 5855 5855 5855 5855 5855 5856 5856 5856 5855 5855 5856 5857 5857 5856 5856 5856 5857 5857 5859 5860 5862 5863 5864 5866 5868 5870 5871 5872 5874 5876 5875 5870 5861 5864 5865 5864
5847 5848 5850 5850 5851 5852 5852 5851 5852 5852 5852 5852 5852 5852 5853 5852 5852 5851 5851 5852 5853 5854 5853 5853 5854 5854 5855 5856 5858 5859 5860 5861 5865 5866 5868 5868 5869 5872 5873 5872 5870 5863 5857 5864 5863
5844 5846 5847 5848 5849 5849 5849 5849 5849 5848 5848 5848 5848 5848 5849 5848 5848 5848 5848 5849 5849 5850 5850 5850 5851 5852 5853 5855 5856 5858 5860 5860 5863 5866 5866 5865 5866 5869 5869 5866 5868 5829 5846 5860 5861
5842 5843 5844 5845 5846 5846 5846 5846 5845 5845 5845 5845 5845 5846 5844 5844 5844 5844 5844 5845 5846 5846 5847 5848 5849 5850 5851 5852 5855 5862 5860 5862 5864 5868 5866 5864 5863 5864 5866 5864 5865 5865 5862 5859 5856
5839 5840 5841 5842 5842 5842 5843 5843 5844 5843 5842 5841 5841 5840 5840 5841 5840 5840 5841 5841 5842 5843 5844 5844 5846 5847 5849 5850 5854 5854 5857 5861 5866 5866 5864 5863 5860 5863 5863 5860 5857 5859 5860 5850 5853
5836 5837 5838 5838 5838 5839 5839 5838 5837 5838 5838 5837 5837 5837 5837 5837 5837 5837 5838 5838 5838 5839 5840 5843 5843 5845 5848 5847 5848 5850 5853 5855 5858 5860 5856 5857 5857 5858 5860 5859 5855 5856 5854 5845 5842
5833 5834 5834 5835 5836 5836 5835 5834 5833 5833 5833 5835 5835 5834 5835 5835 5834 5835 5835 5834 5835 5836 5837 5839 5845 5841 5842 5844 5845 5847 5848 5850 5854 5856 5853 5852 5853 5855 5856 5856 5851 5852 5852 5851 5844
5829 5830 5832 5832 5833 5832 5831 5830 5830 5831 5830 5832 5832 5832 5832 5831 5831 5831 5831 5832 5832 5834 5835 5838 5840 5837 5839 5840 5841 5843 5846 5846 5847 5849 5852 5853 5851 5853 5853 5854 5849 5847 5848 5849 5844
5825 5827 5828 5829 5829 5829 5828 5828 5828 5830 5831 5830 5830 5830 5829 5831 5830 5829 5828 5828 5829 5830 5834 5837 5836 5836 5837 5838 5839 5841 5840 5841 5842 5843 5844 5847 5847 5850 5851 5847 5846 5845 5842 5841 5843
5821 5823 5824 5825 5826 5826 5826 5826 5827 5829 5828 5828 5828 5827 5828 5827 5827 5826 5827 5826 5827 5828 5830 5832 5833 5834 5835 5835 5834 5836 5835 5837 5838 5840 5840 5841 5842 5844 5848 5849 5845 5843 5840 5839 5836
5817 5818 5820 5821 5823 5823 5823 5824 5826 5825 5827 5825 5826 5826 5828 5826 5824 5824 5824 5825 5825 5828 5829 5830 5831 5832 5830 5831 5833 5833 5834 5835 5838 5839 5838 5838 5840 5840 5842 5845 5841 5840 5840 5840 5833
5812 5814 5816 5818 5819 5819 5820 5822 5822 5824 5822 5821 5823 5823 5825 5824 5824 5824 5824 5823 5823 5824 5825 5826 5824 5825 5828 5829 5831 5832 5833 5836 5835 5835 5830 5836 5835 5839 5838 5840 5840 5841 5840 5833 5829
5808 5809 5811 5813 5814 5815 5817 5818 5818 5818 5818 5819 5819 5820 5820 5821 5822 5822 5824 5819 5821 5821 5824 5824 5819 5822 5825 5825 5827 5829 5831 5830 5829 5831 5831 5834 5834 5832 5829 5834 5831 5833 5832 5826 5821
5802 5804 5806 5807 5809 5811 5812 5813 5813 5813 5814 5815 5816 5817 5820 5820 5817 5818 5821 5818 5818 5819 5820 5821 5820 5822 5822 5821 5824 5823 5825 5826 5827 5823 5824 5828 5832 5821 5825 5823 5825 5821 5821 5815 5810
5796 5797 5799 5800 5803 5805 5806 5807 5807 5809 5809 5810 5811 5810 5813 5813 5813 5816 5817 5811 5815 5815 5815 5815 5817 5819 5818 5821 5819 5819 5817 5813 5821 5819 5816 5818 5824 5814 5812 5813 5812 5804 5799 5800 5799
5791 5791 5794 5794 5797 5797 5799 5798 5802 5802 5803 5804 5804 5805 5806 5806 5807 5809 5810 5801 5810 5810 5811 5808 5812 5812 5814 5814 5814 5815 5813 5814 5815 5815 5811 5813 5813 5796 5801 5805 5798 5803 5801 5792 5790
5784 5785 5788 5788 5790 5790 5790 5793 5794 5794 5796 5797 5799 5797 5798 5801 5802 5802 5802 5796 5804 5803 5806 5806 5806 5807 5809 5812 5810 5808 5807 5806 5807 5806 5807 5807 5810 5812 5806 5801 5794 5795 5798 5786 5784
5777 5779 5780 5782 5783 5784 5783 5787 5786 5787 5788 5790 5790 5790 5792 5793 5793 5795 5796 5790 5798 5795 5800 5798 5801 5801 5803 5805 5802 5802 5799 5794 5801 5802 5802 5802 5800 5801 5801 5795 5791 5791 5790 5791 5788
5768 5769 5772 5774 5776 5778 5777 5779 5779 5779 5780 5781 5782 5783 5784 5784 5785 5787 5788 5786 5784 5790 5791 5790 5792 5793 5794 5795 5796 5795 5795 5792 5794 5795 5793 5795 5793 5792 5790 5789 5784 5788 5781 5787 5781
5758 5761 5765 5765 5768 5770 5770 5770 5771 5772 5769 5774 5773 5773 5775 5775 5778 5778 5775 5777 5780 5777 5781 5782 5784 5784 5783 5786 5786 5786 5787 5787 5788 5788 5786 5785 5786 5785 5784 5780 5777 5779 5780 5776 5777
5750 5752 5754 5756 5758 5760 5761 5760 5762 5764 5760 5764 5762 5765 5764 5764 5770 5770 5771 5769 5769 5770 5772 5769 5772 5773 5773 5775 5774 5772 5778 5780 5778 5778 5777 5777 5779 5777 5773 5768 5769 5771 5771 5771 5771